TimeCDT,TemperatureF,Dew PointF,Humidity,Sea Level PressureIn,VisibilityMPH,Wind Direction,Wind SpeedMPH,Gust SpeedMPH,PrecipitationIn,Events,Conditions,WindDirDegrees,DateUTC
12:15 AM,75.2,73.4,94,29.95,10.0,Calm,Calm,-,N/A,,Unknown,0,2013-09-09 05:15:00
12:35 AM,73.4,73.4,100,29.94,7.0,Calm,Calm,-,N/A,,Unknown,0,2013-09-09 05:35:00
12:55 AM,73.4,73.4,100,29.94,10.0,Calm,Calm,-,N/A,,Unknown,0,2013-09-09 05:55:00
1:15 AM,71.6,71.6,100,29.94,7.0,Calm,Calm,-,N/A,,Unknown,0,2013-09-09 06:15:00
1:35 AM,73.4,71.6,94,29.94,10.0,Calm,Calm,-,N/A,,Unknown,0,2013-09-09 06:35:00
1:55 AM,73.4,71.6,94,29.93,10.0,Calm,Calm,-,N/A,,Unknown,0,2013-09-09 06:55:00
2:15 AM,73.4,71.6,94,29.94,10.0,Calm,Calm,-,N/A,,Unknown,0,2013-09-09 07:15:00
2:35 AM,73.4,69.8,88,29.94,10.0,Calm,Calm,-,N/A,,Unknown,0,2013-09-09 07:35:00
2:55 AM,71.6,69.8,94,29.94,10.0,Calm,Calm,-,N/A,,Unknown,0,2013-09-09 07:55:00
3:15 AM,71.6,69.8,94,29.94,10.0,Calm,Calm,-,N/A,,Unknown,0,2013-09-09 08:15:00
3:35 AM,71.6,69.8,94,29.94,10.0,Calm,Calm,-,N/A,,Unknown,0,2013-09-09 08:35:00
3:55 AM,71.6,69.8,94,29.94,10.0,South,3.5,-,N/A,,Unknown,190,2013-09-09 08:55:00
4:15 AM,71.6,69.8,94,29.95,10.0,Calm,Calm,-,N/A,,Unknown,0,2013-09-09 09:15:00
4:35 AM,71.6,69.8,94,29.95,10.0,Calm,Calm,-,N/A,,Unknown,0,2013-09-09 09:35:00
4:55 AM,71.6,69.8,94,29.96,10.0,Calm,Calm,-,N/A,,Unknown,0,2013-09-09 09:55:00
5:15 AM,71.6,68.0,88,29.96,10.0,Calm,Calm,-,N/A,,Unknown,0,2013-09-09 10:15:00
5:35 AM,71.6,69.8,94,29.97,10.0,Calm,Calm,-,N/A,,Unknown,0,2013-09-09 10:35:00
5:55 AM,71.6,69.8,94,29.97,10.0,Calm,Calm,-,N/A,,Unknown,0,2013-09-09 10:55:00
6:15 AM,71.6,69.8,94,29.97,10.0,Calm,Calm,-,N/A,,Unknown,0,2013-09-09 11:15:00
6:35 AM,69.8,69.8,100,29.98,7.0,Calm,Calm,-,N/A,,Unknown,0,2013-09-09 11:35:00
6:55 AM,71.6,69.8,94,29.99,10.0,Calm,Calm,-,N/A,,Unknown,0,2013-09-09 11:55:00
7:15 AM,69.8,69.8,100,29.99,7.0,Calm,Calm,-,N/A,,Unknown,0,2013-09-09 12:15:00
7:35 AM,68.0,68.0,100,30.00,5.0,Calm,Calm,-,N/A,,Mist,0,2013-09-09 12:35:00
7:55 AM,71.6,71.6,100,30.00,7.0,South,3.5,-,N/A,,Unknown,190,2013-09-09 12:55:00
8:15 AM,73.4,71.6,94,30.00,10.0,Calm,Calm,-,N/A,,Unknown,0,2013-09-09 13:15:00
8:35 AM,77.0,71.6,83,30.01,10.0,Calm,Calm,-,N/A,,Unknown,0,2013-09-09 13:35:00
8:55 AM,78.8,71.6,78,30.01,10.0,SSW,5.8,-,N/A,,Unknown,210,2013-09-09 13:55:00
9:15 AM,80.6,71.6,74,30.01,10.0,SSW,4.6,-,N/A,,Unknown,210,2013-09-09 14:15:00
9:35 AM,82.4,73.4,74,30.02,10.0,South,3.5,-,N/A,,Unknown,190,2013-09-09 14:35:00
9:55 AM,82.4,71.6,70,30.02,10.0,SSW,3.5,-,N/A,,Unknown,200,2013-09-09 14:55:00
10:15 AM,86.0,69.8,58,30.02,10.0,SSW,5.8,-,N/A,,Unknown,200,2013-09-09 15:15:00
10:35 AM,86.0,71.6,62,30.03,10.0,South,4.6,-,N/A,,Unknown,190,2013-09-09 15:35:00
10:55 AM,89.6,73.4,59,30.03,10.0,SSW,4.6,-,N/A,,Unknown,200,2013-09-09 15:55:00
11:15 AM,89.6,73.4,59,30.03,10.0,South,4.6,-,N/A,,Unknown,190,2013-09-09 16:15:00
11:35 AM,91.4,73.4,55,30.02,10.0,Calm,Calm,-,N/A,,Unknown,0,2013-09-09 16:35:00
11:55 AM,91.4,71.6,52,30.02,10.0,Calm,Calm,-,N/A,,Unknown,0,2013-09-09 16:55:00
12:15 PM,91.4,71.6,52,30.02,10.0,South,3.5,-,N/A,,Unknown,190,2013-09-09 17:15:00
12:35 PM,93.2,71.6,49,30.01,10.0,South,3.5,-,N/A,,Unknown,190,2013-09-09 17:35:00
12:55 PM,95.0,71.6,47,30.01,10.0,SSE,3.5,-,N/A,,Unknown,150,2013-09-09 17:55:00
1:15 PM,95.0,71.6,47,30.00,10.0,SE,5.8,-,N/A,,Unknown,140,2013-09-09 18:15:00
1:35 PM,96.8,71.6,44,30.00,10.0,South,5.8,-,N/A,,Unknown,180,2013-09-09 18:35:00
1:55 PM,96.8,71.6,44,29.99,10.0,SSW,4.6,-,N/A,,Unknown,200,2013-09-09 18:55:00
2:15 PM,96.8,71.6,44,29.98,10.0,ESE,4.6,-,N/A,,Unknown,110,2013-09-09 19:15:00
2:35 PM,96.8,71.6,44,29.98,10.0,South,4.6,-,N/A,,Unknown,180,2013-09-09 19:35:00
2:55 PM,96.8,68.0,39,29.97,10.0,SE,5.8,-,0.03,,Unknown,140,2013-09-09 19:55:00
3:15 PM,-9999,-9999,N/A,-9999,-9999.0,North,-9999.0,-,N/A,,Unknown,0,2013-09-09 20:15:00
3:35 PM,96.8,68.0,39,29.95,10.0,SSE,5.8,-,N/A,,Unknown,160,2013-09-09 20:35:00
3:55 PM,96.8,69.8,41,29.95,10.0,South,8.1,-,N/A,,Unknown,180,2013-09-09 20:55:00
4:15 PM,96.8,68.0,39,29.95,10.0,South,5.8,-,N/A,,Unknown,170,2013-09-09 21:15:00
4:35 PM,96.8,68.0,39,29.94,10.0,South,8.1,-,N/A,,Unknown,180,2013-09-09 21:35:00
4:55 PM,96.8,68.0,39,29.94,10.0,SSE,5.8,-,N/A,,Unknown,160,2013-09-09 21:55:00
5:15 PM,96.8,68.0,39,29.94,10.0,SSE,8.1,-,N/A,,Unknown,160,2013-09-09 22:15:00
5:35 PM,96.8,68.0,39,29.93,10.0,SSE,8.1,-,N/A,,Unknown,150,2013-09-09 22:35:00
5:55 PM,96.8,68.0,39,29.93,10.0,SSE,5.8,-,N/A,,Unknown,150,2013-09-09 22:55:00
6:15 PM,95.0,68.0,41,29.94,10.0,SSE,4.6,-,N/A,,Unknown,160,2013-09-09 23:15:00
6:35 PM,93.2,68.0,44,29.93,10.0,SSE,3.5,-,N/A,,Unknown,160,2013-09-09 23:35:00
6:55 PM,91.4,68.0,46,29.93,10.0,South,3.5,-,N/A,,Unknown,170,2013-09-09 23:55:00
7:15 PM,91.4,71.6,52,29.94,10.0,Calm,Calm,-,N/A,,Unknown,0,2013-09-10 00:15:00
7:35 PM,89.6,69.8,52,29.94,10.0,Calm,Calm,-,N/A,,Unknown,0,2013-09-10 00:35:00
7:55 PM,82.4,69.8,66,29.94,10.0,Calm,Calm,-,N/A,,Unknown,0,2013-09-10 00:55:00
8:15 PM,82.4,69.8,66,29.95,10.0,Calm,Calm,-,N/A,,Unknown,0,2013-09-10 01:15:00
8:35 PM,80.6,69.8,70,29.95,10.0,Calm,Calm,-,N/A,,Unknown,0,2013-09-10 01:35:00
8:55 PM,80.6,69.8,70,29.96,10.0,Calm,Calm,-,N/A,,Unknown,0,2013-09-10 01:55:00
9:15 PM,78.8,71.6,78,29.98,10.0,Calm,Calm,-,N/A,,Unknown,0,2013-09-10 02:15:00
9:35 PM,77.0,71.6,83,29.98,10.0,Calm,Calm,-,N/A,,Unknown,0,2013-09-10 02:35:00
9:55 PM,77.0,71.6,83,29.98,10.0,Calm,Calm,-,N/A,,Unknown,0,2013-09-10 02:55:00
10:15 PM,77.0,71.6,83,29.99,10.0,Calm,Calm,-,N/A,,Unknown,0,2013-09-10 03:15:00
10:35 PM,77.0,73.4,89,29.99,10.0,Calm,Calm,-,N/A,,Unknown,0,2013-09-10 03:35:00
10:55 PM,77.0,71.6,83,29.99,10.0,Calm,Calm,-,N/A,,Unknown,0,2013-09-10 03:55:00
11:15 PM,73.4,69.8,88,29.99,10.0,Calm,Calm,-,N/A,,Unknown,0,2013-09-10 04:15:00
11:35 PM,71.6,69.8,94,30.00,10.0,Calm,Calm,-,N/A,,Unknown,0,2013-09-10 04:35:00
11:55 PM,71.6,69.8,94,30.00,10.0,Calm,Calm,-,N/A,,Unknown,0,2013-09-10 04:55:00